Location: Unspecified
(33.6682°S, 0.0000°E)
Time: 12:37:20
(UTC+00:00)

Vanguard 2 Rocket - Pass Details

Date: 19 June 2019
Orbit: 554 x 3326 km, 32.9° (Epoch: 20 July)

Event Time Altitude Azimuth Distance (km) Brightness Sun altitude
Rises 14:23:17 0° 261° (W) 3,898 10.5 23.7°
Reaches altitude 10° 14:26:35 10° 265° (W) 2,583 9.8 23.3°
Maximum altitude 14:32:02 50° 339° (NNW) 852 8.0 22.6°
Drops below altitude 10° 14:36:00 10° 56° (NE) 1,879 8.6 22.1°
Sets 14:38:04 0° 61° (ENE) 2,727 9.3 21.8°
